Hourly Data

Hourly Data Report for February 07, 2012

All times are specified in Local Standard Time (LST). Add 1 hour to adjust for Daylight Saving Time where and when it is observed.

Metadata including Station Name, Province, Latitude, Longitude, Elevation, Climate ID, WMO ID, TC ID
PARRY SOUND CCG
ONTARIO
Latitude: 45°20'39.000" N Longitude: 80°02'39.000" W Elevation: 176.30 m
Climate ID: 6116257 WMO ID: 71172 TC ID: XPC
Hourly Data Report for February 7, 2012
Temp Definition
°C

Dew Point Temp Definition
°C

Rel Hum Definition
%

Wind Dir Definition
10's deg
Wind Spd Definition
km/h

Visibility Definition
km

Stn Press Definition
kPa

Hmdx Definition

Wind Chill Definition

Weather Definition

TIME
00:00 0.8 -2.5 79 LegendMM LegendMM 99.37 LegendNANA
01:00 0.0 -4.0 74 LegendMM LegendMM 99.45 LegendNANA
02:00 -0.8 -5.1 73 LegendMM LegendMM 99.55 LegendNANA
03:00 -2.5 -6.4 75 LegendMM LegendMM 99.66 LegendNANA
04:00 -4.0 -8.5 71 LegendMM LegendMM 99.75 LegendNANA
05:00 -5.1 -9.9 69 LegendMM LegendMM 99.85 LegendNANA
06:00 -6.0 -10.7 69 LegendMM LegendMM 99.93 LegendNANA
07:00 -6.8 -11.7 68 LegendMM LegendMM 100.05 LegendNANA
08:00 -6.9 -11.6 69 LegendMM LegendMM 100.14 LegendNANA
09:00 -7.0 -12.3 66 LegendMM LegendMM 100.23 LegendNANA
10:00 -6.1 -12.2 62 LegendMM LegendMM 100.28 LegendNANA
11:00 -6.3 -12.8 60 LegendMM LegendMM 100.38 LegendNANA
12:00 -5.6 -13.4 54 LegendMM LegendMM 100.36 LegendNANA
13:00 -4.9 -14.5 47 LegendMM LegendMM 100.34 LegendNANA
14:00 -4.6 -14.9 44 LegendMM LegendMM 100.29 LegendNANA
15:00 -4.8 -19.1 32 LegendMM LegendMM 100.34 LegendNANA
16:00 -4.6 -19.0 31 LegendMM LegendMM 100.37 LegendNANA
17:00 -5.3 -18.7 34 LegendMM LegendMM 100.40 LegendNANA
18:00 -6.6 -17.2 43 LegendMM LegendMM 100.42 LegendNANA
19:00 -8.1 -16.8 50 LegendMM LegendMM 100.47 LegendNANA
20:00 -8.7 -17.0 51 LegendMM LegendMM 100.49 LegendNANA
21:00 -9.3 -15.8 59 LegendMM LegendMM 100.47 LegendNANA
22:00 -10.6 -14.1 75 LegendMM LegendMM 100.44 LegendNANA
23:00 -11.8 -14.4 81 LegendMM LegendMM 100.41 LegendNANA

Notes on Data Quality.

Legend
  • M = Missing
  • E = Estimated
  • NA = Not Available
  • ‡ = Partner data that is not subject to review by the National Climate Archives